This is the latest recevied weather packets stored in our database for station/object KL4TQ. If no packets are shown the sender has not sent any weather packets the latest 10 day(s).
| Time | Temp. | Humidity | Pressure | Rain* | Wind** | Luminosity | Snow |
|---|---|---|---|---|---|---|---|
| 1777582268 | 6.11° C | 41% | 857 hPa | 0 mm | - | 664 W/m² | - |
| 1777581969 | 6.11° C | 39% | 857 hPa | 0 mm | - | 630 W/m² | - |
| 1777581669 | 5.56° C | 42% | 857 hPa | 0 mm | - | 634 W/m² | - |
| 1777581369 | 5.56° C | 42% | 857 hPa | 0 mm | - | 574 W/m² | - |
| 1777581069 | 5.56° C | 43% | 857 hPa | 0 mm | - | 565 W/m² | - |
| 1777580768 | 5.56° C | 43% | 857 hPa | 0 mm | - | 593 W/m² | - |
| 1777580469 | 5.56° C | 44% | 857 hPa | 0 mm | - | 513 W/m² | - |
| 1777580168 | 5.56° C | 44% | 857 hPa | 0 mm | - | 532 W/m² | - |
| 1777579868 | 5.56° C | 45% | 857 hPa | 0 mm | - | 491 W/m² | - |
| 1777579568 | 5.56° C | 44% | 857 hPa | 0 mm | - | 544 W/m² | - |
| 1777579268 | 5.56° C | 44% | 857 hPa | 0 mm | - | 586 W/m² | - |
| 1777578969 | 5.56° C | 45% | 857 hPa | 0 mm | - | 561 W/m² | - |
| 1777578669 | 5.56° C | 43% | 857 hPa | 0 mm | - | 517 W/m² | - |
| 1777578368 | 5.56° C | 46% | 857 hPa | 0 mm | - | 617 W/m² | - |
| 1777578072 | 5° C | 46% | 857 hPa | 0 mm | - | 661 W/m² | - |
| 1777577769 | 5.56° C | 46% | 857 hPa | 0 mm | - | 647 W/m² | - |
| 1777577468 | 5.56° C | 44% | 857 hPa | 0 mm | - | 654 W/m² | - |
| 1777577168 | 5° C | 46% | 857 hPa | 0 mm | - | 624 W/m² | - |
| 1777576869 | 5° C | 48% | 857 hPa | 0 mm | - | 540 W/m² | - |
| 1777576569 | 5° C | 48% | 857 hPa | 0 mm | - | 572 W/m² | - |
| 1777576269 | 4.44° C | 47% | 857 hPa | 0 mm | - | 541 W/m² | - |
| 1777575968 | 4.44° C | 48% | 857 hPa | 0 mm | - | 463 W/m² | - |
| 1777575669 | 4.44° C | 46% | 857 hPa | 0 mm | - | 438 W/m² | - |
| 1777575369 | 4.44° C | 46% | 857 hPa | 0 mm | - | 476 W/m² | - |
| 1777575069 | 4.44° C | 46% | 857 hPa | 0 mm | - | 457 W/m² | - |
* Rain latest hour (hover to see other rain measurements)
** Current wind speed in m/s (hover to see current wind gust speed)